Location: Alpine Heights
(32.8181°N, 116.7809°W)
Time: 00:05:31
(UTC+00:00)

Meteor 1-31 Rocket - Pass Details

Date: 14 April 2021
Orbit: 520 x 545 km, 97.7° (Epoch: 15 May)

Event Time Altitude Azimuth Distance (km) Brightness Sun altitude
Rises 12:42:07 0° 10° (N) 2,655 6.7 -8.2°
Reaches altitude 10° 12:44:13 10° 10° (N) 1,765 5.8 -7.8°
Maximum altitude 12:48:02 83° 284° (WNW) 534 2.7 -7.0°
Drops below altitude 10° 12:51:50 10° 195° (SSW) 1,766 5.1 -6.2°
Sets 12:53:56 0° 194° (SSW) 2,655 6.0 -5.8°
